Regional Weather Roundup
Issued by NWS Charleston, WV

Home | Current Version | Previous Version | Text Only | Print | Product List | Glossary Off
Versions: 1 2 3 4 5 6 7 8 9 10 11 12 13 14 15 16 17 18 19 20 21 22 23 24 25 26 27 28 29 30 31 32 33 34 35 36 37 38 39 40 41 42 43 44 45 46 47 48 49 50

000
ASUS41 KRLX 232210
RWRRLX
West Virginia Regional Weather Roundup
National Weather Service Charleston WV
600 PM EDT WED AUG 23 2017

Note: "fair" indicates few or no clouds below 12,000 feet with no
significant weather and/or obstructions to visibility.

WVZ003-232300-
Northern Panhandle of West Virginia

CITY           SKY/WX    TMP DP  RH WIND       PRES   REMARKS
WHEELING       SUNNY     74  53  48 W9        29.96S
$$

WVZ009-232300-
Northwest West Virginia

CITY           SKY/WX    TMP DP  RH WIND       PRES   REMARKS
PARKERSBURG    MOSUNNY   77  53  43 NW7       30.00S
$$

WVZ006-232300-
Western West Virginia

CITY           SKY/WX    TMP DP  RH WIND       PRES   REMARKS
HUNTINGTON     SUNNY     78  52  40 NW8       29.97S
$$

WVZ015-232300-
West Central West Virginia

CITY           SKY/WX    TMP DP  RH WIND       PRES   REMARKS
CHARLESTON     MOSUNNY   79  54  41 VRB6      29.96S
$$

WVZ022-031-232300-
North Central West Virginia

CITY           SKY/WX    TMP DP  RH WIND       PRES   REMARKS
CLARKSBURG     MOSUNNY   77  54  44 NW10      29.95S
MORGANTOWN     PTSUNNY   76  52  43 VRB3      29.96S
$$

WVZ025-035-042-045-232300-
Southern West Virginia

CITY           SKY/WX    TMP DP  RH WIND       PRES   REMARKS
BECKLEY        SUNNY     71  56  58 N9        30.00F
LOGAN            N/A     75  57  53 VRB5G12   29.98F
BLUEFIELD      MOSUNNY   72  57  59 VRB7      30.01F
LEWISBURG      SUNNY     75  53  47 NW7       29.98S
$$

WVZ047-232300-
Northern Mountains of West Virginia

CITY           SKY/WX    TMP DP  RH WIND       PRES   REMARKS
ELKINS         SUNNY     74  54  49 NW9       29.99R
$$

WVZ052-232300-
Eastern Panhandle of West Virginia

CITY           SKY/WX    TMP DP  RH WIND       PRES   REMARKS
MARTINSBURG    MOSUNNY   81  55  40 N8        29.86F
PETERSBURG     SUNNY     82  60  46 W10       29.90S
$$



USA.gov is the U.S. government's official web portal to all federal, state and local government web resources and services.